"Platform","Muskegon M20 ReCON Buoy"
"NDBC ID","45161"
"Latitude (deg)",43.185360
"Longitude (deg)",-86.351840
"Water Depth (m)",18
"Sensor Device","System Power Controller board voltage input"
"Sensor Type","Buoy battery voltage"
"Sensor Units","voltage"
"Measurement","A sample"
"Time means","Time at sample (UTC time zone)"

"Note:","This data was collected for research purposes."
"Note:","Minimal quality checking has been performed so data may contain known or unknown errors."
"Note:","Data provided by NOAA. Please credit NOAA."
"Note:","For more info see www.glerl.noaa.gov/res/recon"

"Time (UTC)","Battery"
"YYYY/MM/DD HH:MM","volts"
2023/04/19 14:18, 13.52
2023/04/19 14:38, 13.15
2023/04/19 14:58, 13.50
2023/04/19 15:18, 13.35
2023/04/19 15:38, 12.78
2023/04/19 15:58, 12.48
2023/04/19 16:18, 12.70
2023/04/19 16:38, 12.76
2023/04/19 16:58, 13.53
2023/04/19 17:18, 13.46
2023/04/19 17:38, 13.62
2023/04/19 17:58, 13.46
2023/04/19 18:18, 13.65
2023/04/19 18:38, 13.05
2023/04/19 18:58, 11.94
2023/04/19 19:18, 11.77
2023/04/19 19:38, 11.46
2023/04/19 19:58, 11.94
2023/04/19 20:18, 13.45
2023/04/19 20:38, 13.70
2023/04/19 20:58, 12.93
2023/04/19 21:18, 11.94
2023/04/19 21:38, 11.69
2023/04/19 21:58, 11.63
2023/04/19 22:18, 11.61
2023/04/19 22:38, 11.57
2023/04/19 22:58, 11.56
2023/04/19 23:18, 11.56
2023/04/19 23:38, 11.57
2023/04/19 23:58, 11.56
2023/04/20 00:18, 11.56
2023/04/20 00:38, 11.56
2023/04/20 00:58, 11.55
2023/04/20 01:18, 11.56
2023/04/20 01:38, 11.53
2023/04/20 01:58, 11.54
2023/04/20 02:18, 11.56
2023/04/20 02:38, 11.55
2023/04/20 02:58, 11.50
2023/04/20 03:18, 11.54
2023/04/20 03:38, 11.46
2023/04/20 03:58, 11.46
2023/04/20 04:18, 11.46
2023/04/20 04:38, 11.46
2023/04/20 04:58, 11.44
2023/04/20 05:18, 11.45
2023/04/20 05:38, 11.44
2023/04/20 05:58, 11.37
2023/04/20 06:18, 11.37
2023/04/20 06:38, 11.37
2023/04/20 06:58, 11.37
2023/04/20 07:18, 11.37
2023/04/20 07:38, 11.37
2023/04/20 07:58, 11.37
2023/04/20 08:18, 11.36
2023/04/20 08:38, 11.36
2023/04/20 08:58, 11.36
2023/04/20 09:18, 11.36
2023/04/20 09:38, 11.35
2023/04/20 09:58, 11.29
2023/04/20 10:18, 11.31
2023/04/20 10:38, 11.30
2023/04/20 10:58, 11.29
2023/04/20 11:18, 11.37
2023/04/20 11:38, 11.29
2023/04/20 11:58, 11.35
2023/04/20 12:18, 11.62
2023/04/20 12:38, 12.29
2023/04/20 12:58, 12.13
2023/04/20 13:18, 12.32
2023/04/20 13:38, 12.78
2023/04/20 13:58, 13.54
2023/04/20 14:18, 13.51
2023/04/20 14:38, 13.46
2023/04/20 14:58, 13.49
2023/04/20 15:18, 13.50
2023/04/20 15:38, 13.45
2023/04/20 15:58, 13.46
2023/04/20 16:18, 13.46
2023/04/20 16:38, 13.25
2023/04/20 16:58, 12.60
2023/04/20 17:18, 12.77
2023/04/20 17:38, 11.94
2023/04/20 17:58, 13.13
2023/04/20 18:18, 11.75
2023/04/20 18:38, 11.42
2023/04/20 18:58, 11.47
2023/04/20 19:18, 13.46
2023/04/20 19:38, 13.46
2023/04/20 19:58, 13.44
2023/04/20 20:18, 13.46
2023/04/20 20:38, 13.43
2023/04/20 20:58, 12.98
2023/04/20 21:18, 11.97
2023/04/20 21:38, 11.79
2023/04/20 21:58, 11.93
2023/04/20 22:18, 12.22
2023/04/20 22:38, 12.21
2023/04/20 22:58, 11.63
2023/04/20 23:18, 11.55
2023/04/20 23:38, 11.56
2023/04/20 23:58, 11.55
2023/04/21 00:18, 11.54
2023/04/21 00:38, 11.54
2023/04/21 00:58, 11.49
2023/04/21 01:18, 11.45
2023/04/21 01:38, 11.46
2023/04/21 01:58, 11.46
2023/04/21 02:18, 11.46
2023/04/21 02:38, 11.46
2023/04/21 02:58, 11.45
2023/04/21 03:18, 11.46
2023/04/21 03:38, 11.46
2023/04/21 03:58, 11.43
2023/04/21 04:18, 11.44
2023/04/21 04:38, 11.44
2023/04/21 04:58, 11.38
2023/04/21 05:18, 11.39
2023/04/21 05:38, 11.37
2023/04/21 05:58, 11.37
2023/04/21 06:18, 11.37
2023/04/21 06:38, 11.37
2023/04/21 06:58, 11.36
2023/04/21 07:18, 11.36
2023/04/21 07:38, 11.32
2023/04/21 07:58, 11.32
2023/04/21 08:18, 11.35
2023/04/21 08:38, 11.30
2023/04/21 08:58, 11.29
2023/04/21 09:18, 11.29
2023/04/21 09:38, 11.25
2023/04/21 09:58, 11.24
2023/04/21 10:18, 11.24
2023/04/21 10:38, 11.22
2023/04/21 10:58, 11.24
2023/04/21 11:18, 11.41
2023/04/21 11:38, 11.70
2023/04/21 11:58, 12.01
2023/04/21 12:18, 13.46
2023/04/21 12:38, 13.02
2023/04/21 12:58, 13.06
2023/04/21 13:18, 13.18
2023/04/21 13:38, 13.26
2023/04/21 13:58, 13.26
2023/04/21 14:18, 13.46
2023/04/21 14:38, 13.34
2023/04/21 14:58, 13.41
2023/04/21 15:18, 13.46
2023/04/21 15:38, 13.45
2023/04/21 15:58, 13.46
2023/04/21 16:18, 13.46
2023/04/21 16:38, 13.28
2023/04/21 16:58, 13.30
2023/04/21 17:18, 13.32
2023/04/21 17:38, 13.34
2023/04/21 17:58, 13.34
2023/04/21 18:18, 13.36
2023/04/21 18:38, 13.27
2023/04/21 18:58, 13.36
2023/04/21 19:18, 13.36
2023/04/21 19:38, 13.37
2023/04/21 19:58, 13.35
2023/04/21 20:18, 13.39
2023/04/21 20:38, 13.38
2023/04/21 20:58, 13.39
2023/04/21 21:18, 13.38
2023/04/21 21:38, 13.40
2023/04/21 21:58, 13.41
2023/04/21 22:18, 13.25
2023/04/21 22:38, 13.44
2023/04/21 22:58, 13.46
2023/04/21 23:18, 13.46
2023/04/21 23:38, 12.95
2023/04/21 23:58, 12.61
2023/04/22 00:18, 11.94
2023/04/22 00:38, 11.71
2023/04/22 00:58, 11.63
2023/04/22 01:18, 11.66
2023/04/22 01:38, 11.65
2023/04/22 01:58, 11.63
2023/04/22 02:18, 11.62
2023/04/22 02:38, 11.62
2023/04/22 02:58, 11.59
2023/04/22 03:18, 11.58
2023/04/22 03:38, 11.58
2023/04/22 03:58, 11.57
2023/04/22 04:18, 11.59
2023/04/22 04:38, 11.56
2023/04/22 04:58, 11.57
2023/04/22 05:18, 11.56
2023/04/22 05:38, 11.56
2023/04/22 05:58, 11.56
2023/04/22 06:18, 11.56
2023/04/22 06:38, 11.56
2023/04/22 06:58, 11.56
2023/04/22 07:18, 11.56
2023/04/22 07:38, 11.51
2023/04/22 07:58, 11.54
2023/04/22 08:18, 11.56
2023/04/22 08:38, 11.56
2023/04/22 08:58, 11.49
2023/04/22 09:18, 11.52
2023/04/22 09:38, 11.50
2023/04/22 09:58, 11.47
2023/04/22 10:18, 11.48
2023/04/22 10:38, 11.48
2023/04/22 10:58, 11.46
2023/04/22 11:18, 11.45
2023/04/22 11:38, 11.46
2023/04/22 11:58, 11.63
2023/04/22 12:18, 11.93
2023/04/22 12:38, 12.25
2023/04/22 12:58, 12.22
2023/04/22 13:18, 12.25
2023/04/22 13:38, 12.58
2023/04/22 13:58, 12.76
2023/04/22 14:18, 13.15
2023/04/22 14:38, 12.98
2023/04/22 14:58, 13.60
2023/04/22 15:18, 13.62
2023/04/22 15:38, 13.62
2023/04/22 15:58, 13.61
2023/04/22 16:18, 13.62
2023/04/22 16:38, 13.62
2023/04/22 16:58, 13.64
2023/04/22 17:18, 13.37
2023/04/22 17:38, 13.37
2023/04/22 17:58, 13.37
2023/04/22 18:18, 13.38
2023/04/22 18:38, 13.29
2023/04/22 18:58, 13.38
2023/04/22 19:18, 13.39
2023/04/22 19:38, 13.40
2023/04/22 19:58, 13.28
2023/04/22 20:18, 13.50
2023/04/22 20:38, 13.64
2023/04/22 20:58, 13.65
2023/04/22 21:18, 13.65
2023/04/22 21:38, 13.66
2023/04/22 21:58, 13.66
2023/04/22 22:18, 13.46
2023/04/22 22:38, 13.67
2023/04/22 22:58, 12.77
2023/04/22 23:18, 12.31
2023/04/22 23:38, 11.93
2023/04/22 23:58, 11.84
2023/04/23 00:18, 11.76
2023/04/23 00:38, 11.72
2023/04/23 00:58, 11.69
2023/04/23 01:18, 11.72
2023/04/23 01:38, 11.71
2023/04/23 01:58, 11.64
2023/04/23 02:18, 11.67
2023/04/23 02:38, 11.65
2023/04/23 02:58, 11.62
2023/04/23 03:18, 11.63
2023/04/23 03:38, 11.63
2023/04/23 03:58, 11.62
2023/04/23 04:18, 11.60
2023/04/23 04:38, 11.58
2023/04/23 04:58, 11.56
2023/04/23 05:18, 11.60
2023/04/23 05:38, 11.56
2023/04/23 05:58, 11.58
2023/04/23 06:18, 11.56
2023/04/23 06:38, 11.57
2023/04/23 06:58, 11.57
2023/04/23 07:18, 11.56
2023/04/23 07:38, 11.56
2023/04/23 07:58, 11.56
2023/04/23 08:18, 11.56
2023/04/23 08:38, 11.56
2023/04/23 08:58, 11.56
2023/04/23 09:18, 11.54
2023/04/23 09:38, 11.52
2023/04/23 09:58, 11.56
2023/04/23 10:18, 11.55
2023/04/23 10:38, 11.51
2023/04/23 10:58, 11.46
2023/04/23 11:18, 11.59
2023/04/23 11:38, 12.17
2023/04/23 11:58, 13.49
2023/04/23 12:18, 13.64
2023/04/23 12:38, 13.65
2023/04/23 12:58, 13.65
2023/04/23 13:18, 13.63
2023/04/23 13:38, 13.66
2023/04/23 13:58, 13.66
2023/04/23 14:18, 13.71
2023/04/23 14:38, 13.39
2023/04/23 14:58, 13.46
2023/04/23 15:18, 13.46
2023/04/23 15:38, 13.47
2023/04/23 15:58, 13.46
2023/04/23 16:18, 13.46
2023/04/23 16:38, 13.46
2023/04/23 16:58, 13.45
2023/04/23 17:18, 13.46
2023/04/23 17:38, 13.46
2023/04/23 17:58, 13.47
2023/04/23 18:18, 13.47
2023/04/23 18:38, 13.41
2023/04/23 18:58, 13.47
2023/04/23 19:18, 13.47
2023/04/23 19:38, 13.48
2023/04/23 19:58, 13.47
2023/04/23 20:18, 13.48
2023/04/23 20:38, 13.49
2023/04/23 20:58, 13.49
2023/04/23 21:18, 13.51
2023/04/23 21:38, 13.11
2023/04/23 21:58, 12.89
2023/04/23 22:18, 12.40
2023/04/23 22:38, 12.39
2023/04/23 22:58, 12.01
2023/04/23 23:18, 11.94
2023/04/23 23:38, 11.94
2023/04/23 23:58, 11.90
2023/04/24 00:18, 11.77
2023/04/24 00:38, 11.75
2023/04/24 00:58, 11.74
2023/04/24 01:18, 11.72
2023/04/24 01:38, 11.73
2023/04/24 01:58, 11.72
2023/04/24 02:18, 11.71
2023/04/24 02:38, 11.72
2023/04/24 02:58, 11.70
2023/04/24 03:18, 11.68
2023/04/24 03:38, 11.70
2023/04/24 03:58, 11.66
2023/04/24 04:18, 11.68
2023/04/24 04:38, 11.65
2023/04/24 04:58, 11.64
2023/04/24 05:18, 11.63
2023/04/24 05:38, 11.62
2023/04/24 05:58, 11.63
2023/04/24 06:18, 11.61
2023/04/24 06:38, 11.61
2023/04/24 06:58, 11.59
2023/04/24 07:18, 11.57
2023/04/24 07:38, 11.57
2023/04/24 07:58, 11.56
2023/04/24 08:18, 11.60
2023/04/24 08:38, 11.59
2023/04/24 08:58, 11.56
2023/04/24 09:18, 11.57
2023/04/24 09:38, 11.56
2023/04/24 09:58, 11.56
2023/04/24 10:18, 11.56
2023/04/24 10:38, 11.56
2023/04/24 10:58, 11.58
2023/04/24 11:18, 12.76
2023/04/24 11:38, 13.64
2023/04/24 11:58, 13.63
2023/04/24 12:18, 13.64
2023/04/24 12:38, 13.64
2023/04/24 12:58, 13.66
2023/04/24 13:18, 13.65
2023/04/24 13:38, 13.66
2023/04/24 13:58, 13.44
2023/04/24 14:18, 13.43
2023/04/24 14:38, 13.31
2023/04/24 14:58, 13.42
2023/04/24 15:18, 13.45
2023/04/24 15:38, 13.46
2023/04/24 15:58, 13.46
2023/04/24 16:18, 13.45
2023/04/24 16:38, 13.46
2023/04/24 16:58, 13.46
2023/04/24 17:18, 13.46
2023/04/24 17:38, 13.46
2023/04/24 17:58, 13.46
2023/04/24 18:18, 13.47
2023/04/24 18:38, 13.38
2023/04/24 18:58, 13.48
2023/04/24 19:18, 13.48
2023/04/24 19:38, 13.48
2023/04/24 19:58, 13.48
2023/04/24 20:18, 13.48
2023/04/24 20:38, 13.49
2023/04/24 20:58, 13.48
2023/04/24 21:18, 13.51
2023/04/24 21:38, 13.49
2023/04/24 21:58, 13.51
2023/04/24 22:18, 13.50
2023/04/24 22:38, 13.49
2023/04/24 22:58, 13.51
2023/04/24 23:18, 13.52
2023/04/24 23:38, 13.53
2023/04/24 23:58, 13.53
2023/04/25 00:18, 12.13
2023/04/25 00:38, 11.94
2023/04/25 00:58, 11.84
2023/04/25 01:18, 11.84
2023/04/25 01:38, 11.77
2023/04/25 01:58, 11.79
2023/04/25 02:18, 11.75
2023/04/25 02:38, 11.77
2023/04/25 02:58, 11.74
2023/04/25 03:18, 11.75
2023/04/25 03:38, 11.75
2023/04/25 03:58, 11.72
2023/04/25 04:18, 11.74
2023/04/25 04:38, 11.73
2023/04/25 04:58, 11.72
2023/04/25 05:18, 11.74
2023/04/25 05:38, 11.76
2023/04/25 05:58, 11.73
2023/04/25 06:18, 11.73
2023/04/25 06:38, 11.73
2023/04/25 06:58, 11.72
2023/04/25 07:18, 11.73
2023/04/25 07:38, 11.73
2023/04/25 07:58, 11.71
2023/04/25 08:18, 11.72
2023/04/25 08:38, 11.71
2023/04/25 08:58, 11.71
2023/04/25 09:18, 11.69
2023/04/25 09:38, 11.71
2023/04/25 09:58, 11.67
2023/04/25 10:18, 11.69
2023/04/25 10:38, 11.67
2023/04/25 10:58, 11.65
2023/04/25 11:18, 11.70
2023/04/25 11:38, 11.74
2023/04/25 11:58, 11.77
2023/04/25 12:18, 11.94
2023/04/25 12:38, 11.84
2023/04/25 12:58, 12.03
2023/04/25 13:18, 12.53
2023/04/25 13:38, 12.78
2023/04/25 13:58, 13.15
2023/04/25 14:18, 13.75
2023/04/25 14:38, 13.64
2023/04/25 14:58, 13.65
2023/04/25 15:18, 13.74
2023/04/25 15:38, 13.68
2023/04/25 15:58, 13.53
2023/04/25 16:18, 13.07
2023/04/25 16:38, 13.70
2023/04/25 16:58, 13.71
2023/04/25 17:18, 13.74
2023/04/25 17:38, 13.75
2023/04/25 17:58, 13.75
2023/04/25 18:18, 13.75
2023/04/25 18:38, 13.77
2023/04/25 18:58, 13.77
2023/04/25 19:18, 13.55
2023/04/25 19:38, 13.55
2023/04/25 19:58, 13.54
2023/04/25 20:18, 13.57
2023/04/25 20:38, 13.57
2023/04/25 20:58, 13.59
2023/04/25 21:18, 13.58
2023/04/25 21:38, 13.61
2023/04/25 21:58, 13.60
2023/04/25 22:18, 13.59
2023/04/25 22:38, 13.60
2023/04/25 22:58, 13.63
2023/04/25 23:18, 13.61
2023/04/25 23:38, 13.63
2023/04/25 23:58, 13.63
2023/04/26 00:18, 13.37
2023/04/26 00:38, 12.03
2023/04/26 00:58, 11.94
2023/04/26 01:18, 11.93
2023/04/26 01:38, 11.93
2023/04/26 01:58, 11.92
2023/04/26 02:18, 11.87
2023/04/26 02:38, 11.85
2023/04/26 02:58, 11.85
2023/04/26 03:18, 11.85
2023/04/26 03:38, 11.82
2023/04/26 03:58, 11.79
2023/04/26 04:18, 11.84
2023/04/26 04:38, 11.80
2023/04/26 04:58, 11.78
2023/04/26 05:18, 11.76
2023/04/26 05:38, 11.77
2023/04/26 05:58, 11.76
2023/04/26 06:18, 11.76
2023/04/26 06:38, 11.76
2023/04/26 06:58, 11.74
2023/04/26 07:18, 11.73
2023/04/26 07:38, 11.75
2023/04/26 07:58, 11.72
2023/04/26 08:18, 11.72
2023/04/26 08:38, 11.72
2023/04/26 08:58, 11.71
2023/04/26 09:18, 11.70
2023/04/26 09:38, 11.69
2023/04/26 09:58, 11.69
2023/04/26 10:18, 11.66
2023/04/26 10:38, 11.67
2023/04/26 10:58, 12.12
2023/04/26 11:18, 13.19
2023/04/26 11:38, 13.75
2023/04/26 11:58, 13.76
2023/04/26 12:18, 13.78
2023/04/26 12:38, 13.79
2023/04/26 12:58, 13.81
2023/04/26 13:18, 13.84
2023/04/26 13:38, 13.86
2023/04/26 13:58, 13.60
2023/04/26 14:18, 13.60
2023/04/26 14:38, 13.51
2023/04/26 14:58, 13.64
2023/04/26 15:18, 13.64
2023/04/26 15:38, 13.62
2023/04/26 15:58, 13.65
2023/04/26 16:18, 13.62
2023/04/26 16:38, 13.65
2023/04/26 16:58, 13.65
2023/04/26 17:18, 13.66
2023/04/26 17:38, 13.65
2023/04/26 17:58, 13.65
2023/04/26 18:18, 13.65
2023/04/26 18:38, 13.59
2023/04/26 18:58, 13.67
2023/04/26 19:18, 13.67
2023/04/26 19:38, 13.67
2023/04/26 19:58, 13.66
2023/04/26 20:18, 13.69
2023/04/26 20:38, 13.67
2023/04/26 20:58, 13.69
2023/04/26 21:18, 13.71
2023/04/26 21:38, 13.70
2023/04/26 21:58, 13.69
2023/04/26 22:18, 13.70
2023/04/26 22:38, 13.72
2023/04/26 22:58, 13.70
2023/04/26 23:18, 13.74
2023/04/26 23:38, 13.71
2023/04/26 23:58, 13.75
2023/04/27 00:18, 13.62
2023/04/27 00:38, 12.15
2023/04/27 00:58, 11.96
2023/04/27 01:18, 11.94
2023/04/27 01:38, 11.94
2023/04/27 01:58, 11.94
2023/04/27 02:18, 11.92
2023/04/27 02:38, 11.93
2023/04/27 02:58, 11.88
2023/04/27 03:18, 11.89
2023/04/27 03:38, 11.89
2023/04/27 03:58, 11.84
2023/04/27 04:18, 11.84
2023/04/27 04:38, 11.84
2023/04/27 04:58, 11.84
2023/04/27 05:18, 11.83
2023/04/27 05:38, 11.84
2023/04/27 05:58, 11.84
2023/04/27 06:18, 11.84
2023/04/27 06:38, 11.81
2023/04/27 06:58, 11.83
2023/04/27 07:18, 11.83
2023/04/27 07:38, 11.77
2023/04/27 07:58, 11.79
2023/04/27 08:18, 11.78
2023/04/27 08:38, 11.76
2023/04/27 08:58, 11.76
2023/04/27 09:18, 11.74
2023/04/27 09:38, 11.75
2023/04/27 09:58, 11.74
2023/04/27 10:18, 11.74
2023/04/27 10:38, 11.69
2023/04/27 10:58, 12.19
2023/04/27 11:18, 13.66
2023/04/27 11:38, 13.80
2023/04/27 11:58, 13.81
2023/04/27 12:18, 13.80
2023/04/27 12:38, 13.84
2023/04/27 12:58, 13.85
2023/04/27 13:18, 13.87
2023/04/27 13:38, 13.90
2023/04/27 13:58, 13.65
2023/04/27 14:18, 13.62
2023/04/27 14:38, 13.55
2023/04/27 14:58, 13.64
2023/04/27 15:18, 13.66
2023/04/27 15:38, 13.67
2023/04/27 15:58, 13.67
2023/04/27 16:18, 13.68
2023/04/27 16:38, 13.68
2023/04/27 16:58, 13.68
2023/04/27 17:18, 13.68
2023/04/27 17:38, 13.71
2023/04/27 17:58, 13.69
2023/04/27 18:18, 13.72
2023/04/27 18:38, 13.62
2023/04/27 18:58, 13.73
2023/04/27 19:18, 13.72
2023/04/27 19:38, 13.75
2023/04/27 19:58, 13.73
2023/04/27 20:18, 13.74
2023/04/27 20:38, 13.74
2023/04/27 20:58, 13.75
2023/04/27 21:18, 13.74
2023/04/27 21:38, 13.74
2023/04/27 21:58, 13.76
2023/04/27 22:18, 13.74
2023/04/27 22:38, 13.75
2023/04/27 22:58, 13.74
2023/04/27 23:18, 13.76
2023/04/27 23:38, 13.76
2023/04/27 23:58, 13.77
2023/04/28 00:18, 13.77
2023/04/28 00:38, 12.01
2023/04/28 00:58, 11.94
2023/04/28 01:18, 11.94
2023/04/28 01:38, 11.94
2023/04/28 01:58, 11.92
2023/04/28 02:18, 11.91
2023/04/28 02:38, 11.90
2023/04/28 02:58, 11.83
2023/04/28 03:18, 11.89
2023/04/28 03:38, 11.89
2023/04/28 03:58, 11.84
2023/04/28 04:18, 11.86
2023/04/28 04:38, 11.85
2023/04/28 04:58, 11.84
2023/04/28 05:18, 11.84
2023/04/28 05:38, 11.81
2023/04/28 05:58, 11.82
2023/04/28 06:18, 11.83
2023/04/28 06:38, 11.83
2023/04/28 06:58, 11.76
2023/04/28 07:18, 11.82
2023/04/28 07:38, 11.75
2023/04/28 07:58, 11.76
2023/04/28 08:18, 11.76
2023/04/28 08:38, 11.76
2023/04/28 08:58, 11.71
2023/04/28 09:18, 11.72
2023/04/28 09:38, 11.71
2023/04/28 09:58, 11.74
2023/04/28 10:18, 11.73
2023/04/28 10:38, 11.72
2023/04/28 10:58, 11.74
2023/04/28 11:18, 11.91
2023/04/28 11:38, 12.11
2023/04/28 11:58, 12.28
2023/04/28 12:18, 12.81
2023/04/28 12:38, 13.37
2023/04/28 12:58, 13.68
2023/04/28 13:18, 13.71
2023/04/28 13:38, 13.72
2023/04/28 13:58, 13.73
2023/04/28 14:18, 13.75
2023/04/28 14:38, 13.72
2023/04/28 14:58, 13.82
2023/04/28 15:18, 13.53
2023/04/28 15:38, 13.53
2023/04/28 15:58, 13.53
2023/04/28 16:18, 13.51
2023/04/28 16:38, 13.55
2023/04/28 16:58, 13.56
2023/04/28 17:18, 13.58
2023/04/28 17:38, 13.57
2023/04/28 17:58, 13.57
2023/04/28 18:18, 13.62
2023/04/28 18:38, 13.53
2023/04/28 18:58, 13.65
2023/04/28 19:18, 13.65
2023/04/28 19:38, 13.65
2023/04/28 19:58, 13.66
2023/04/28 20:18, 13.68
2023/04/28 20:38, 14.07
2023/04/28 20:58, 14.07
2023/04/28 21:18, 13.65
2023/04/28 21:38, 13.37
2023/04/28 21:58, 13.09
2023/04/28 22:18, 13.05
2023/04/28 22:38, 12.89
2023/04/28 22:58, 12.76
2023/04/28 23:18, 13.10
2023/04/28 23:38, 13.13
2023/04/28 23:58, 12.38
2023/04/29 00:18, 12.00
2023/04/29 00:38, 11.92
2023/04/29 00:58, 11.86
2023/04/29 01:18, 11.91
2023/04/29 01:38, 11.93
2023/04/29 01:58, 11.87
2023/04/29 02:18, 11.85
2023/04/29 02:38, 11.84
2023/04/29 02:58, 11.84
2023/04/29 03:18, 11.84
2023/04/29 03:38, 11.82
2023/04/29 03:58, 11.84
2023/04/29 04:18, 11.82
2023/04/29 04:38, 11.78
2023/04/29 04:58, 11.81
2023/04/29 05:18, 11.82
2023/04/29 05:38, 11.80
2023/04/29 05:58, 11.80
2023/04/29 06:18, 11.79
2023/04/29 06:38, 11.77
2023/04/29 06:58, 11.73
2023/04/29 07:18, 11.75
2023/04/29 07:38, 11.93
2023/04/29 07:58, 11.73
2023/04/29 08:18, 11.72
2023/04/29 08:38, 11.73
2023/04/29 08:58, 11.74
2023/04/29 09:18, 11.72
2023/04/29 09:38, 11.72
2023/04/29 09:58, 11.72
2023/04/29 10:18, 11.72
2023/04/29 10:38, 11.69
2023/04/29 10:58, 12.68
2023/04/29 11:18, 12.93
2023/04/29 11:38, 13.66
2023/04/29 11:58, 13.68
2023/04/29 12:18, 13.72
2023/04/29 12:38, 13.72
2023/04/29 12:58, 13.75
2023/04/29 13:18, 13.76
2023/04/29 13:38, 13.77
2023/04/29 13:58, 13.81
2023/04/29 14:18, 13.51
2023/04/29 14:38, 13.32
2023/04/29 14:58, 13.52
2023/04/29 15:18, 13.57
2023/04/29 15:38, 13.56
2023/04/29 15:58, 13.61
2023/04/29 16:18, 13.63
2023/04/29 16:38, 13.65
2023/04/29 16:58, 13.64
2023/04/29 17:18, 13.65
2023/04/29 17:38, 13.64
2023/04/29 17:58, 13.62
2023/04/29 18:18, 13.65
2023/04/29 18:38, 12.34
2023/04/29 18:58, 14.12
2023/04/29 19:18, 12.61
2023/04/29 19:38, 12.22
2023/04/29 19:58, 12.31
2023/04/29 20:18, 12.98
2023/04/29 20:38, 12.40
2023/04/29 20:58, 13.06
2023/04/29 21:18, 12.13
2023/04/29 21:38, 12.21
2023/04/29 21:58, 12.31
2023/04/29 22:18, 12.78
2023/04/29 22:38, 12.47
2023/04/29 22:58, 12.15
2023/04/29 23:18, 12.44
2023/04/29 23:38, 14.12
2023/04/29 23:58, 14.13
2023/04/30 00:18, 13.27
2023/04/30 00:38, 12.12
2023/04/30 00:58, 11.93
2023/04/30 01:18, 11.94
2023/04/30 01:38, 11.90
2023/04/30 01:58, 11.90
2023/04/30 02:18, 11.88
2023/04/30 02:38, 11.84
2023/04/30 02:58, 11.84
2023/04/30 03:18, 11.81
2023/04/30 03:38, 11.84
2023/04/30 03:58, 11.83
2023/04/30 04:18, 11.82
2023/04/30 04:38, 11.84
2023/04/30 04:58, 11.84
2023/04/30 05:18, 11.84
2023/04/30 05:38, 11.82
2023/04/30 05:58, 11.82
2023/04/30 06:18, 11.75
2023/04/30 06:38, 11.77
2023/04/30 06:58, 11.77
2023/04/30 07:18, 11.73
2023/04/30 07:38, 11.74
2023/04/30 07:58, 11.74
2023/04/30 08:18, 11.73
2023/04/30 08:38, 11.72
2023/04/30 08:58, 11.72
2023/04/30 09:18, 11.73
2023/04/30 09:38, 11.71
2023/04/30 09:58, 11.71
2023/04/30 10:18, 11.72
2023/04/30 10:38, 11.72
2023/04/30 10:58, 11.70
2023/04/30 11:18, 11.72
2023/04/30 11:38, 11.76
2023/04/30 11:58, 11.84
2023/04/30 12:18, 11.80
2023/04/30 12:38, 11.96
2023/04/30 12:58, 11.94
2023/04/30 13:18, 12.25
2023/04/30 13:38, 13.03
2023/04/30 13:58, 12.70
2023/04/30 14:18, 13.75
2023/04/30 14:38, 13.53
2023/04/30 14:58, 13.07
2023/04/30 15:18, 13.77
2023/04/30 15:38, 13.77
2023/04/30 15:58, 13.79
2023/04/30 16:18, 13.81
2023/04/30 16:38, 13.82
2023/04/30 16:58, 13.82
2023/04/30 17:18, 13.85
2023/04/30 17:38, 13.55
2023/04/30 17:58, 13.50
2023/04/30 18:18, 13.56
2023/04/30 18:38, 13.51
2023/04/30 18:58, 13.65
2023/04/30 19:18, 13.66
2023/04/30 19:38, 13.67
2023/04/30 19:58, 13.68
2023/04/30 20:18, 13.72
2023/04/30 20:38, 12.81
2023/04/30 20:58, 13.51
2023/04/30 21:18, 13.36
2023/04/30 21:38, 12.76
2023/04/30 21:58, 12.69
2023/04/30 22:18, 12.96
2023/04/30 22:38, 12.22
2023/04/30 22:58, 12.32
2023/04/30 23:18, 12.47
2023/04/30 23:38, 12.34
2023/04/30 23:58, 12.27
2023/05/01 00:18, 12.05
2023/05/01 00:38, 11.88
2023/05/01 00:58, 11.93
2023/05/01 01:18, 11.91
2023/05/01 01:38, 11.88
2023/05/01 01:58, 11.76
2023/05/01 02:18, 11.85
2023/05/01 02:38, 11.72
2023/05/01 02:58, 11.71
2023/05/01 03:18, 11.84
2023/05/01 03:38, 11.78
2023/05/01 03:58, 11.70
2023/05/01 04:18, 11.83
2023/05/01 04:38, 11.78
2023/05/01 04:58, 11.79
2023/05/01 05:18, 11.60
2023/05/01 05:38, 11.64
2023/05/01 05:58, 11.74
2023/05/01 06:18, 11.74
2023/05/01 06:38, 11.72
2023/05/01 06:58, 11.56
2023/05/01 07:18, 11.74
2023/05/01 07:38, 11.61
2023/05/01 07:58, 11.73
2023/05/01 08:18, 11.72
2023/05/01 08:38, 11.55
2023/05/01 08:58, 11.63
2023/05/01 09:18, 11.56
2023/05/01 09:38, 11.57
2023/05/01 09:58, 11.57
2023/05/01 10:18, 11.56
2023/05/01 10:38, 11.55
2023/05/01 10:58, 11.56
2023/05/01 11:18, 11.60
2023/05/01 11:38, 11.94
2023/05/01 11:58, 12.00
2023/05/01 12:18, 12.13
2023/05/01 12:38, 12.46
2023/05/01 12:58, 13.08
2023/05/01 13:18, 12.89
2023/05/01 13:38, 13.47
2023/05/01 13:58, 13.82
2023/05/01 14:18, 13.82
2023/05/01 14:38, 13.75
2023/05/01 14:58, 13.81
2023/05/01 15:18, 13.83
2023/05/01 15:38, 13.83
2023/05/01 15:58, 13.85
2023/05/01 16:18, 13.84
2023/05/01 16:38, 13.86
2023/05/01 16:58, 13.90
2023/05/01 17:18, 13.65
2023/05/01 17:38, 13.66
2023/05/01 17:58, 13.99
2023/05/01 18:18, 14.05
2023/05/01 18:38, 13.65
2023/05/01 18:58, 14.12
2023/05/01 19:18, 14.12
2023/05/01 19:38, 13.53
2023/05/01 19:58, 13.49
2023/05/01 20:18, 13.36
2023/05/01 20:38, 13.24
2023/05/01 20:58, 13.20
2023/05/01 21:18, 12.89
2023/05/01 21:38, 12.60
2023/05/01 21:58, 12.45
2023/05/01 22:18, 12.30
2023/05/01 22:38, 12.14
2023/05/01 22:58, 12.07
2023/05/01 23:18, 12.00
2023/05/01 23:38, 11.94
2023/05/01 23:58, 11.78
2023/05/02 00:18, 11.61
2023/05/02 00:38, 11.83
2023/05/02 00:58, 11.72
2023/05/02 01:18, 11.88
2023/05/02 01:38, 11.85
2023/05/02 01:58, 11.84
2023/05/02 02:18, 11.85
2023/05/02 02:38, 11.84
2023/05/02 02:58, 11.84
2023/05/02 03:18, 11.85
2023/05/02 03:38, 11.83
2023/05/02 03:58, 11.87
2023/05/02 04:18, 11.80
2023/05/02 04:38, 11.83
2023/05/02 04:58, 11.78
2023/05/02 05:18, 11.80
2023/05/02 05:38, 11.77
2023/05/02 05:58, 11.75
2023/05/02 06:18, 11.75
2023/05/02 06:38, 11.72
2023/05/02 06:58, 11.72
2023/05/02 07:18, 11.69
2023/05/02 07:38, 11.69
2023/05/02 07:58, 11.66
2023/05/02 08:18, 11.65
2023/05/02 08:38, 11.62
2023/05/02 08:58, 11.62
2023/05/02 09:18, 11.63
2023/05/02 09:38, 11.62
2023/05/02 09:58, 11.63
2023/05/02 10:18, 11.63
2023/05/02 10:38, 11.57
2023/05/02 10:58, 11.58
2023/05/02 11:18, 11.56
2023/05/02 11:38, 11.69
2023/05/02 11:58, 11.83
2023/05/02 12:18, 12.10
2023/05/02 12:38, 12.13
2023/05/02 12:58, 12.13